sat.trackr.live / text

‹ back to catalog

YAOGAN-19

NORAD 39410 · 2013-065A

PAYLOAD ACTIVE UNKNOWN

§ Identity

Operator
Country
PRC
Launch date
2013-11-20
Launch site
TAISC
Launch vehicle
Mass (kg)
RCS (m²)
3.16

External: N2YO · Heavens-Above · Gunter

§ Orbital elements

Epoch: 2026-09-20T05:23:41.959680Z

Period
109.46 min
Inclination
100.1248°
Eccentricity
0.0008742
Mean motion
13.15585705 rev/d
Perigee alt
1,195.0 km
Apogee alt
1,208.3 km
Semi-major
7,579.8 km
B*
6.9329e-5
RAAN
235.4279°
Arg perigee
226.9507°
Mean anomaly
133.0875°
Rev number
61,614

§ Raw data

YAOGAN-191 39410U 13065A   26263.22479120 -.00000016  00000+0  69329-4 0  99982 39410 100.1248 235.4279 0008742 226.9507 133.0875 13.15585705616144

JSON: /api/v1/satellites/39410 · /tle

For live sub-satellite position, see the globe view (requires WebGL).

§ Visibility from observer

Set your observer location to see the next 7 days of passes ≥ 10°. The values pass through the URL so the page stays shareable.

No JS? Fill the form by hand. The geolocation button needs JavaScript.